User: anonymous   Login
Location: Tyler Bend Campground
(35.9875°N, 92.7606°W)
Time: 07:15:25
(UTC-06:00)
Language:

CZ-2C R/B - Orbit

View from above orbital plane
View from above orbital plane
View from above satellite
View from above satellite

Ground track
Ground track

The orbit data is extracted from the following two-line orbital elements,

1 36089U 09061B   18051.91577201 +.00000055 +00000-0 +25006-4 0  9996
2 36089 098.0657 047.8201 0082074 000.6660 054.2079 14.49711524437654
Epoch (UTC): 20 February 2018 21:58:42
Eccentricity: 0.0082074
inclination: 98.0657°
perigee height: 668 km
apogee height: 785 km
right ascension of ascending node: 47.8201°
argument of perigee: 0.6660°
revolutions per day: 14.49711524
mean anomaly at epoch: 54.2079°
orbit number at epoch: 43765

The dashed part of the orbit path shows where the satellite is in the earth's shadow,  

DLR